Lahr, Germany

10:31 AM CET on November 17, 2019 (GMT +0100)
Lahr

Weather History for EDTL - September, 2019

Change the Weather History Date:

Saturday, September 21, 2019

  Actual Average (WUND) Record (WUND)
Temperature  
Mean Temperature 58 °F -  
Max Temperature 72 °F - - (-1)
Min Temperature 43 °F - - (-1)
Degree Days  
Heating Degree Days 8    
Growing Degree Days 8 (Base 50)    
Moisture  
Dew Point 43 °F    
Average Humidity 53    
Maximum Humidity 87    
Minimum Humidity 28    
Precipitation  
Precipitation 0.00 in - - ()
Sea Level Pressure  
Sea Level Pressure 30.10 in    
Wind  
Wind Speed 3 mph ()    
Max Wind Speed 7 mph    
Max Gust Speed -    
Visibility 16.5 miles    
Events      
Averages and records for this station are not official NWS values.
T = Trace of Precipitation, MM = Missing Value Source: Averaged Metar Reports

Daily Weather History Graph

Daily Weather History Graph

Search for Another Location

Airport or City:

Astronomy

Sep. 21, 2019 Rise Set
Actual Time 7:13 AM CEST 7:29 PM CEST
Civil Twilight 6:41 AM CEST 8:00 PM CEST
Nautical Twilight 6:05 AM CEST 8:37 PM CEST
Astronomical Twilight 5:26 AM CEST 9:15 PM CEST
Moon 11:22 PM CEST (9/21) 2:32 PM CEST (9/21)
Length of Visible Light 13h 18m
Length of Day
12h 16m
Waning Gibbous, 57% of the Moon is Illuminated
Sep 21
Waning Gibbous
Sep 22
Last Quarter
Sep 28
New
Oct 5
First Quarter
Oct 13
Full

Hourly Weather History & Observations

Time (CEST) Temp. Dew Point Humidity Pressure Visibility Wind Dir Wind Speed Gust Speed Precip Events Conditions
12:00 AM 58 °F 37 °F 34% 30.19 in 44 mi East 4.5 mph - -  
1:00 AM 56 °F 37 °F 37% 30.19 in 44 mi WNW 2.2 mph - -  
3:00 AM 56 °F 37 °F 36% 30.17 in 44 mi SE 6.7 mph - -  
4:00 AM 46 °F 39 °F 69% 30.17 in 31 mi West 2.2 mph - -  
6:00 AM 43 °F 40 °F 83% 30.18 in 17 mi SW 2.2 mph - -  
8:50 AM 46.4 °F 42.8 °F 87% 30.15 in - Variable 2.3 mph - N/A   Clear
9:00 AM 47 °F 40 °F 71% 30.19 in 19 mi SSW 2.2 mph - -  
9:20 AM 48.2 °F 42.8 °F 82% 30.15 in - SW 4.6 mph - N/A   Clear
9:50 AM 51.8 °F 42.8 °F 71% 30.15 in - SW 4.6 mph - N/A   Clear
10:00 AM 52 °F 42 °F 59% 30.17 in 13 mi SSW 4.5 mph - -  
10:20 AM 55.4 °F 42.8 °F 63% 30.15 in - Variable 2.3 mph - N/A   Clear
10:50 AM 57.2 °F 42.8 °F 59% 30.15 in - Variable 1.2 mph - N/A   Clear
11:20 AM 60.8 °F 42.8 °F 52% 30.12 in - Variable 2.3 mph - N/A   Clear
11:50 AM 62.6 °F 42.8 °F 48% 30.12 in - Variable 2.3 mph - N/A   Clear
12:20 PM 64.4 °F 42.8 °F 45% 30.12 in - Variable 1.2 mph - N/A   Clear
12:50 PM 66.2 °F 44.6 °F 46% 30.09 in - ENE 3.5 mph - N/A   Clear
1:00 PM 67 °F 43 °F 31% 30.10 in 22 mi NNE 4.5 mph - -  
3:00 PM 71 °F 45 °F 28% 30.04 in 17 mi NNE 6.7 mph - -  
4:00 PM 72 °F 46 °F 28% 30.02 in 22 mi North 6.7 mph - -  
6:00 PM 72 °F 47 °F 29% 29.97 in 31 mi NNE 6.7 mph - -  
6:50 PM 69.8 °F 48.2 °F 46% 29.98 in - North 6.9 mph - N/A   Clear
7:20 PM 68.0 °F 48.2 °F 49% 29.98 in - North 4.6 mph - N/A   Clear
7:50 PM 66.2 °F 50.0 °F 56% 29.98 in - NNW 2.3 mph - N/A   Clear
10:00 PM 56 °F 49 °F 72% 29.97 in 25 mi South 2.2 mph - -